Regional Weather Roundup
Issued by NWS Wakefield, VA

Home | Current Version | Previous Version | Text Only | Print | Product List | Glossary Off
Versions: 1 2 3 4 5 6 7 8 9 10 11 12 13 14 15 16 17 18 19 20 21 22 23 24 25 26 27 28 29 30 31 32 33 34 35 36 37 38 39 40 41 42 43 44 45 46 47 48 49 50
000 ASUS41 KAKQ 030215 RWRAKQ REGIONAL WEATHER ROUNDUP NATIONAL WEATHER SERVICE WAKEFIELD VA 1000 PM EDT SUN AUG 02 2015 Note: "fair" indicates few or no clouds below 12,000 feet with no significant weather and/or obstructions to visibility. * = Denotes station may not report precipitation (e.g., rain,snow,etc.), thunder or fog. VAZ042-051-052>054-056-030300- NORTHERN VIRGINIA CITY SKY/WX TMP DP RH WIND PRES REMARKS WASH NATIONAL CLEAR 80 61 52 S7 29.92S DULLES CLEAR 72 62 71 S3 29.92S FORT BELVOIR NOT AVBL QUANTICO NOT AVBL FREDERICKSBRG* CLEAR 71 66 83 CALM 29.93R STAFFORD* CLEAR 65 64 94 CALM 29.97R WARRENTON CLEAR 65 64 97 CALM 29.92S CULPEPER* CLEAR 66 63 91 CALM 29.94R MANASSAS* CLEAR 68 66 94 S3 29.92S LEESBURG* CLEAR 75 64 69 SW6 29.93S WINCHESTER CLEAR 73 63 68 S3 29.92S FRONT ROYAL* FAIR 72 63 73 S5 29.93R LURAY* FAIR 72 64 78 S3 29.96R $$ VAZ048-049-060>072-079>083-030300- CENTRAL AND SOUTH CENTRAL VIRGINIA CITY SKY/WX TMP DP RH WIND PRES REMARKS RICHMOND PTCLDY 77 63 61 CALM 29.95R CHESTERFIELD* FAIR 70 54 56 CALM 29.96R PETERSBURG* CLEAR 70 70 99 CALM 29.95R HANOVER CLEAR 69 65 86 CALM 29.96R TAPPAHANNOCK* CLEAR 70 66 87 CALM 29.95R QUINTON* FAIR 73 68 86 CALM 29.94R CHARLOTTSVILLE CLEAR 71 64 78 SW3 29.95R GORDONSVILLE* FAIR 66 64 94 CALM 29.95R ORANGE* CLEAR 68 64 88 CALM 29.96S LOUISA* CLEAR 64 61 88 SW3 29.94S BUMPASS* FAIR 67 63 87 CALM 29.95R FARMVILLE* CLEAR 69 58 70 CALM 29.94S CREWE* FAIR N/A N/A N/A CALM 29.95S FORT PICKETT* FAIR 69 63 80 CALM 29.96R CHASE CITY* FAIR 70 68 95 CALM 29.96R CLARKSVILLE* FAIR 70 64 83 N3 29.94S SOUTH HILL* CLEAR 72 62 70 CALM 30.01R LAWRENCEVILLE* FAIR 70 64 83 CALM 29.95R EMPORIA* CLEAR 66 64 94 CALM 29.96R $$ VAZ088>098-030300- SOUTHEAST VIRGINIA CITY SKY/WX TMP DP RH WIND PRES REMARKS NORFOLK PTCLDY 79 73 82 N3 29.93R VIRGINIA BEACH PTCLDY 78 73 84 NW6 29.92R NORFOLK NAVAL MOCLDY 74 70 87 CALM 29.95R WEST POINT* PTCLDY 74 68 82 CALM 29.96R SALUDA* FAIR 73 69 89 CALM 29.93R NEWPORT NEWS CLEAR 72 69 90 CALM 29.94R LANGLEY AFB CLEAR 74 69 83 E2 29.94 FORT EUSTIS CLEAR 74 73 95 VRB1 29.92R WILLIAMSBURG* PTCLDY 75 72 88 CALM 29.95R HR EXEC AP* FAIR 72 68 88 CALM 29.97R FRANKLIN* CLEAR 73 68 85 CALM 29.95R WAKEFIELD CLEAR 72 69 90 CALM 29.94R $$ VAZ020-022-025-037-045-030300- WEST CENTRAL AND SOUTHWEST VIRGINIA CITY SKY/WX TMP DP RH WIND PRES REMARKS STAUNTON* CLEAR 69 61 74 CALM 29.99S WAYNESBORO* FAIR 67 60 79 SW5 29.99S HOT SPRINGS VA CLEAR 64 50 60 W9 30.09R LYNCHBURG CLEAR 66 61 84 CALM 29.99R DANVILLE CLEAR 69 64 84 CALM 29.95S SOUTH BOSTON* FAIR 68 65 90 CALM 29.95R MARTINSVILLE CLEAR 67 61 83 CALM 30.00R ROANOKE CLEAR 73 58 59 NE6 30.00R BLACKSBURG CLEAR 65 58 79 CALM 30.06R DUBLIN* N/A 65 62 88 CALM 30.04R MARION* CLEAR 66 60 80 CALM 30.07R HILLSVILLE* CLEAR 66 59 76 SE3 30.05S RICHLANDS* FAIR 72 56 58 CALM 30.04S WISE* CLEAR 70 52 52 CALM 30.05S ABINGDON* PTCLDY 69 60 73 CALM 30.01S $$ MDZ021>025-VAZ099-100-030300- SOUTHERN MARYLAND AND THE DELMARVA PENINSULA CITY SKY/WX TMP DP RH WIND PRES REMARKS PATUXENT RIVER PTCLDY 67 63 87 CALM 29.93R BAY BRIDGE APT N/A 79 61 53 S5 29.92R LEONARDTOWN PTCLDY 70 63 78 CALM 29.95R DOVER PTCLDY 74 68 82 S6 29.91R GEORGETOWN PTCLDY 71 67 87 CALM 29.93R EASTON PTCLDY 76 65 68 CALM 29.96R CAMBRIDGE PTCLDY 72 64 78 CALM 29.93R SALISBURY MOCLDY 74 71 91 CALM 29.93R OCEAN CITY MOCLDY 77 72 84 CALM 29.93R WALLOPS ISLAND MOCLDY 75 73 93 SW3 29.94R ACCOMACK* PTCLDY 72 70 94 S3 29.94R $$ NCZ012>017-030>032-030300- NORTH CENTRAL AND EASTERN NORTH CAROLINA CITY SKY/WX TMP DP RH WIND PRES REMARKS ROANOKE RAPIDS FAIR 72 63 73 CALM 29.94R RALEIGH MOCLDY 76 61 59 E3 29.95R ELIZABETH CITY LGT RAIN 77 72 84 W7 29.93S AHOSKIE* PTCLDY 72 67 84 SE6 29.96R EDENTON* N/A 76 72 88 S7 29.96R CURRITUCK* PTCLDY 77 67 71 CALM 29.94R KILL DEVIL HLS PTCLDY 82 73 75 SW9 29.91S MANTEO PTCLDY 81 76 83 SW9 29.93S CAPE HATTERAS CLEAR 80 74 81 SW10G21 29.96R TARBORO* N/A 74 69 84 CALM 29.95R GOLDSBORO CLEAR 80 73 79 CALM 29.93R WASHINGTON CLEAR 79 73 83 CALM 29.96R GREENVILLE CLEAR 81 73 78 SW5 29.96R NEW BERN CLEAR 78 72 81 SW5 29.96R WILMINGTON CLEAR 77 72 84 S5 29.93F $$ VAZ048-030300- ELSEWHERE CITY SKY/WX TMP DP RH WIND PRES REMARKS HARRISBURG PA PTCLDY 79 61 53 SW9 29.88R BALTIMORE PTCLDY 75 59 57 SW5 29.90S ANNAPOLIS CLEAR 78 64 61 W3 29.90S ANDREWS AFB CLEAR 71 62 73 S7 29.91S PHILADELPHIA PTCLDY 82 58 43 SW9 29.90F HENDERSON NC CLEAR 72 61 67 CALM 29.95R GREENSBORO PTCLDY 76 59 55 E5 29.95S ROCKY MOUNT MOCLDY 78 63 59 CALM 29.94R $$ VAZ100-030300- MARINE STATION/POSITION TIME TEMP WIND PRES WAVE SWELL AIR SEA DIR/SP/G HT/PER HT/PER (UTC) (F) (DEG/KT/KT) (MB) (FT/S) (FT/S) BRANDYWINE LGT 0100 78 77 190/ 11/ 13 1013.1R CAPE MAY NJ 0100 75 77 170/ 5/ 7 1012.7R LEWES DE 0100 76 77 190/ 2/ 4 1012.7R 15NM E FENWICK I 0150 79 80 190/ 8/ 8 1013.7R 2/11 2/11 OCEAN-CITY-INLET 0100 77 76 200/ 5/ 6 1012.1R WACHAPREAGUE VA 0112 76 84 CALM / 1 1013.3R GOOSES REEF MD 0200 82 83 260/ 8/ 8 1014.3R COVE POINT MD 0100 80 270/ 5/ 6 1013.6R SOLOMONS ISLAND 0100 85 N/A BISHOPS HEAD MD 0100 83 85 260/ 8/ 8 1011.9R PINEY POINT MD 0100 280/ 4/ 5 N/A POTOMAC MD 0200 83 84 230/ 4/ 6 1012.5R 0 CAMBRIDGE MD 0100 80 85 200/ 2/ 3 1012.1R LEWISETTA VA 0100 80 85 290/ 3/ 4 1012.8R RAPPAHANNOCK LGT 0100 110/ 2/ 3 1013.5S STINGRAY PT 0200 82 83 160/ 4/ 6 1013.7R 0 YORK RVR RNG VA 0100 81 110/ 4/ 5 1012.5R YORKTOWN VA 0100 79 84 190/ 2/ 2 1012.7R JAMESTOWN VA 0200 78 86 20/ 2/ 2 N/A DOMINION TERM VA 0100 81 70/ 4/ 5 1013.0R KIPTOPEKE VA 0100 82 110/ 3/ 3 N/A CHES BAY BRIDGE 0100 80 82 50/ 3/ 3 1012.9R CAPE HENRY VA 0100 79 30/ 4/ 4 N/A CHESAPEAKE LGHT 0100 81 70/ 5/ 5 1013.8R WILLOUBY STN VA 0100 81 20/ 2/ 3 1014.1R CAPE HENRY BUOY 0128 82 N/A 2/11 2/11 1ST LANDING BUOY 0200 81 1013.3R 1/ 4 CAPE CHARLES BUO 0126 80 N/A 2/11 2/11 OFFSHORE WE BUOY 0111 83 N/A 3/12 2/12 64NM E OF VA BCH 0150 82 81 210/ 8/ 10 1013.0R 3/12 2/12 DUCK PIER NC 0100 78 73 260/ 3/ 16 1012.4R 44100 DUCK FRF 0124 80 N/A 3/ 3 44056 DUCK FRF 0111 80 N/A 3/12 2/12 OREGON INLET NC 0100 83 86 200/ 16/ 18 1013.2R HATTERAS NC 0100 80 83 220/ 11/ 17 1013.4S DIAMOND SHLS NC 0150 81 85 230/ 16/ 17 1014.3R 4/ 4 2/ 7 CAPE LOOKOUT NC 0200 79 220/ 12/ 15 1014.0R

USA.gov is the U.S. government's official web portal to all federal, state and local government web resources and services.